Wind_Speed
69 68 67 68 68 65 68 68 61 57 57 44 51 43 44 31 21 25 28 28 20 16 9 14 16 16 17 20 15 16 19 19 12 12 13 10 20 21 24 25 29 29 29 30
69 70 73 70 69 67 64 67 68 62 55 61 54 46 53 45 29 28 22 24 27 22 15 17 17 18 16 17 12 10 15 19 12 12 11 12 15 15 20 22 24 27 27 28
74 79 74 73 73 69 66 60 71 71 63 54 52 53 48 38 41 40 37 26 26 26 25 21 18 20 18 16 12 8 9 14 15 10 8 12 16 14 17 19 20 23 24 26
81 76 73 73 74 73 69 67 66 74 71 65 59 56 52 46 33 36 39 25 23 18 24 30 25 25 18 13 10 7 5 11 12 10 8 7 10 10 9 15 16 17 20 23
82 79 76 73 73 73 76 73 68 70 76 72 68 57 54 53 51 40 37 40 39 34 24 27 26 22 17 12 8 6 6 7 10 10 10 9 5 6 9 11 11 14 15 18
77 84 82 79 78 74 82 76 71 67 69 76 76 72 60 49 54 54 39 38 35 29 25 28 28 24 14 12 9 8 7 8 8 7 8 9 7 2 5 6 9 11 11 13
77 76 80 82 79 77 81 78 72 71 68 77 77 72 67 55 54 55 44 34 33 28 31 25 22 13 12 13 7 13 8 10 9 9 6 7 8 7 2 1 5 8 8 8
78 77 80 81 81 80 81 78 76 73 69 76 76 75 75 69 64 56 48 36 33 29 24 25 21 17 10 10 15 16 15 12 12 11 10 7 7 11 10 3 3 4 7 5
83 81 82 83 82 84 85 80 78 78 75 73 72 74 74 62 61 60 54 50 46 32 28 30 33 24 17 13 13 14 19 18 16 13 15 11 10 10 11 8 5 4 4 5
84 79 79 80 86 89 90 86 85 84 81 79 74 73 71 69 65 61 62 56 58 53 38 40 39 36 28 22 15 16 14 20 17 16 18 18 14 13 12 10 9 7 7 6
81 79 79 79 80 87 87 86 86 83 84 84 77 74 78 74 65 64 57 61 60 55 44 37 36 38 37 25 17 21 13 15 13 22 25 22 21 18 16 11 13 11 11 10
75 77 80 79 77 81 85 89 88 86 84 83 81 76 73 81 74 66 65 68 63 58 44 36 40 41 37 28 27 26 23 15 11 12 19 21 24 28 22 16 14 13 13 13
73 76 72 75 76 76 79 86 93 89 89 84 81 79 76 73 77 78 69 70 66 65 56 47 47 34 31 35 28 43 40 23 26 23 8 20 22 19 27 28 21 26 16 13
81 79 76 78 80 75 74 81 86 90 93 88 85 83 80 71 71 71 73 79 81 70 65 61 58 46 30 42 48 50 47 30 29 36 32 24 28 25 19 23 27 30 28 19
76 80 75 77 79 75 75 75 78 84 96 92 89 85 83 80 74 75 79 81 81 72 73 73 71 68 59 50 46 43 52 42 37 39 34 31 33 31 23 20 27 22 26 26
73 72 75 76 78 77 78 78 79 85 95 94 94 89 83 83 85 80 77 86 88 86 78 72 72 74 70 68 57 47 52 48 41 50 46 39 33 41 32 28 29 24 23 27
74 75 73 76 75 79 81 80 83 83 85 90 91 92 88 85 84 84 87 75 79 83 84 81 78 78 77 75 70 57 56 58 50 48 51 42 41 42 34 36 37 32 34 29
78 80 78 76 79 83 84 82 85 85 83 81 85 86 89 88 89 87 91 89 76 78 80 88 90 86 85 82 76 68 65 68 61 62 57 52 48 54 45 41 41 43 38 31
80 82 79 79 80 83 83 83 86 86 83 80 79 80 85 87 90 95 95 94 95 87 78 78 90 96 94 89 86 80 75 75 71 67 70 57 57 58 52 52 53 47 40 36
85 80 82 82 83 86 88 89 85 84 84 81 78 78 80 88 89 94 101 101 101 104 100 95 87 89 94 97 96 89 85 84 86 78 78 71 66 63 63 58 54 54 51 47
87 89 87 86 88 89 88 92 87 87 85 83 81 81 80 81 86 90 97 106 108 107 103 102 102 98 93 91 96 96 96 91 92 95 98 95 87 81 80 77 66 66 61 58
96 91 91 92 90 90 88 93 91 87 90 91 89 86 86 86 84 88 93 100 106 110 108 104 101 101 103 99 95 96 100 103 103 105 106 105 102 96 87 87 85 85 79 74
71 90 101 94 93 95 93 97 97 92 96 96 94 94 95 95 93 94 96 101 102 105 110 111 109 105 103 101 103 100 99 102 105 108 107 105 104 103 100 94 91 91 89 88
56 64 75 88 99 99 95 99 101 98 96 96 99 101 99 99 99 99 99 98 100 105 108 109 111 113 112 108 105 103 105 104 102 104 107 109 109 108 104 101 99 98 97 96
54 59 64 68 74 81 92 105 109 104 102 103 103 102 99 101 101 99 98 100 105 106 108 109 108 110 115 115 114 112 109 107 107 107 106 105 105 106 105 104 102 100 98 98
48 55 61 65 68 72 76 81 87 97 108 115 114 110 104 100 98 103 106 105 104 107 108 111 110 111 113 116 121 121 118 115 111 110 111 110 110 109 106 105 103 102 101 100
Wind_Direction
214 217 215 215 218 217 216 215 215 216 214 205 223 220 206 196 224 237 240 244 246 253 257 279 288 309 325 351 5 22 18 23 49 49 57 64 45 40 46 44 48 51 53 53
211 214 216 215 217 218 217 215 214 215 214 215 223 212 208 222 227 226 234 233 238 245 241 251 267 289 306 332 353 16 12 25 31 42 63 56 60 55 45 42 46 55 59 59
211 214 214 215 216 216 217 215 214 214 211 214 215 209 202 210 220 228 236 240 230 240 245 246 252 271 286 305 333 8 10 16 35 34 43 61 59 59 54 46 43 49 60 65
214 212 214 216 217 216 216 214 213 215 213 210 198 198 205 214 219 227 232 224 227 246 260 249 258 258 269 293 316 338 354 358 18 26 21 43 69 64 55 41 43 47 53 63
215 213 213 214 217 216 216 215 213 215 217 217 214 215 221 221 221 227 228 229 240 238 253 252 250 250 264 283 292 297 323 337 354 17 14 1 32 57 49 29 39 43 41 55
217 215 212 213 215 216 217 215 215 215 217 219 218 218 220 215 211 223 221 225 225 241 242 241 250 243 255 258 258 277 302 302 318 350 10 6 342 21 67 38 37 28 35 40
215 214 216 215 216 216 220 215 213 217 216 219 219 219 215 207 211 217 218 218 226 229 225 243 233 222 261 222 254 279 274 275 289 308 328 352 345 316 310 91 5 26 14 52
216 214 214 215 218 218 220 218 213 215 215 218 219 218 220 218 221 227 221 214 198 195 209 208 197 214 219 225 255 273 271 261 264 279 296 299 320 327 310 280 285 323 346 40
216 213 213 212 216 218 219 218 217 214 215 218 221 218 220 214 213 218 219 219 213 205 216 226 226 225 214 236 260 265 266 268 257 254 274 286 295 296 302 302 285 267 301 337
215 216 214 215 215 218 218 216 216 216 214 216 214 217 215 211 218 222 220 216 216 215 236 229 239 233 229 240 255 267 290 292 248 249 265 274 277 286 293 305 305 282 265 284
216 217 215 213 216 219 220 220 220 220 218 217 214 213 217 217 217 214 210 212 217 224 230 243 245 228 221 223 225 241 280 273 289 285 265 261 273 273 278 287 302 310 283 266
214 216 216 215 215 219 220 221 221 221 222 221 218 215 214 216 210 211 211 214 225 228 221 222 224 227 223 223 230 237 260 252 288 296 271 279 278 281 267 281 277 279 287 279
216 214 214 217 215 218 218 222 223 220 222 222 219 217 217 214 214 215 220 221 220 219 214 216 211 208 210 209 215 206 241 242 255 263 256 272 277 285 283 294 312 306 276 267
214 216 217 217 218 217 218 222 223 224 224 222 221 218 217 215 211 210 217 223 223 222 220 213 211 220 217 203 201 214 226 233 248 240 253 257 264 264 267 278 288 303 287 283
212 215 216 219 218 218 218 224 223 223 225 223 224 221 217 217 217 213 215 217 220 221 221 220 218 225 230 209 218 230 229 230 230 230 233 235 241 259 251 263 273 276 285 289
213 217 219 220 217 220 221 223 226 223 225 224 224 223 220 219 220 219 220 221 222 224 220 219 219 225 225 219 227 231 231 222 221 228 232 229 243 240 242 248 255 259 259 267
212 217 220 220 220 222 224 223 226 227 225 224 225 225 222 222 222 221 222 222 224 225 224 219 217 220 224 224 225 226 230 225 218 222 222 217 221 222 230 225 240 247 251 257
216 217 216 218 218 223 226 224 227 229 225 224 226 226 226 223 225 225 224 221 223 223 223 224 221 221 222 225 229 230 226 221 216 227 221 219 218 217 216 221 230 232 238 239
220 222 222 221 219 222 226 227 229 230 228 225 225 225 226 226 223 226 228 227 220 219 220 225 224 223 222 224 227 226 219 219 221 219 225 222 223 226 227 223 225 229 233 250
222 221 224 225 225 225 226 228 226 229 229 228 227 227 226 223 224 225 228 230 230 227 227 229 230 229 226 227 226 226 218 218 225 219 220 219 220 222 227 223 225 228 237 233
224 224 224 222 224 225 228 230 228 228 232 232 229 230 230 229 226 227 228 229 231 231 230 231 231 231 231 230 229 228 223 222 222 218 220 234 240 235 236 238 239 238 240 239
225 227 226 227 227 226 227 232 230 229 230 232 233 231 233 233 230 229 230 233 233 233 233 232 234 234 233 230 230 230 230 229 226 226 231 235 241 239 242 242 244 240 242 244
225 227 228 229 228 228 229 232 234 231 233 229 230 233 234 235 234 232 231 232 235 236 235 235 234 234 236 237 234 231 230 232 233 234 236 238 239 242 242 243 243 242 242 244
226 227 229 231 232 231 231 234 235 235 233 234 233 232 234 236 236 236 236 234 235 236 238 237 235 236 236 237 237 236 235 234 234 234 236 237 240 242 244 245 243 243 244 245
232 232 230 230 231 232 234 235 235 237 238 237 238 237 235 234 236 238 239 238 236 236 237 237 238 237 237 237 238 238 238 238 237 237 238 238 238 239 241 243 244 245 244 244
239 236 236 234 232 231 230 231 234 236 238 239 239 238 237 237 236 237 238 239 238 238 239 239 239 239 239 237 238 238 239 240 239 240 240 240 240 240 240 241 242 243 245 245
Height
10894 10902 10910 10915 10921 10933 10944 10957 10971 10980 10985 10991 10985 11001 11006 11004 11007 11009 11010 11014 11016 11020 11022 11022 11024 11025 11026 11025 11022 11020 11016 11014 11011 11007 11005 11002 11000 10998 10997 10995 10991 10987 10984 10982
10880 10887 10891 10904 10913 10923 10936 10951 10961 10965 10972 10979 10980 10992 10998 10999 11003 11005 11007 11011 11013 11016 11020 11022 11023 11023 11025 11026 11024 11021 11017 11014 11012 11009 11007 11005 11004 11003 11001 10999 10995 10992 10989 10987
10862 10861 10881 10891 10900 10912 10925 10939 10946 10953 10962 10968 10978 10985 10991 10994 10998 11002 11004 11008 11010 11011 11016 11019 11022 11022 11023 11024 11025 11022 11019 11015 11013 11012 11009 11006 11005 11005 11004 11001 10999 10996 10994 10990
10840 10858 10872 10880 10890 10901 10913 10921 10930 10941 10951 10957 10970 10977 10981 10988 10992 10995 11000 11004 11007 11010 11011 11016 11020 11020 11021 11021 11023 11020 11018 11016 11013 11011 11011 11010 11007 11007 11006 11004 11001 11000 10996 10994
10826 10844 10856 10869 10876 10888 10894 10906 10920 10928 10940 10952 10959 10964 10971 10980 10987 10987 10993 10998 11001 11007 11007 11011 11016 11017 11018 11018 11020 11019 11018 11017 11014 11012 11011 11010 11010 11006 11006 11005 11004 11001 11001 11000
10817 10827 10841 10851 10859 10872 10872 10895 10908 10921 10930 10938 10944 10956 10964 10970 10978 10978 10988 10993 10996 11001 11003 11005 11010 11014 11015 11016 11017 11018 11016 11015 11014 11014 11013 11012 11011 11008 11006 11005 11005 11004 11005 11003
10801 10818 10830 10838 10849 10858 10864 10884 10899 10906 10917 10920 10931 10949 10952 10962 10969 10974 10983 10987 10990 10995 11000 11001 11006 11010 11012 11013 11014 11015 11014 11013 11013 11013 11013 11014 11013 11010 11008 11007 11007 11007 11007 11006
10786 10803 10811 10825 10835 10846 10852 10871 10887 10893 10903 10906 10920 10933 10938 10955 10964 10970 10978 10982 10986 10990 10994 10998 10999 11003 11007 11008 11011 11012 11012 11012 11012 11013 11012 11013 11014 11012 11010 11009 11008 11009 11007 11006
10767 10784 10793 10809 10818 10829 10838 10856 10868 10877 10884 10899 10911 10922 10933 10944 10953 10961 10968 10972 10978 10982 10988 10990 10993 10998 11001 11003 11005 11007 11007 11009 11009 11010 11011 11014 11014 11012 11012 11012 11010 11010 11009 11008
10761 10773 10789 10800 10803 10810 10820 10835 10844 10859 10871 10880 10898 10913 10924 10933 10944 10951 10959 10966 10970 10977 10981 10982 10985 10989 10995 10999 11001 11003 11004 11005 11006 11008 11010 11011 11012 11012 11012 11014 11012 11011 11010 11009
10756 10764 10776 10785 10795 10800 10813 10827 10836 10849 10859 10868 10886 10901 10912 10923 10933 10943 10948 10956 10963 10968 10974 10977 10979 10982 10988 10994 10998 10999 11000 11000 11004 11006 11006 11008 11009 11011 11009 11011 11011 11011 11011 11011
10743 10747 10762 10772 10781 10790 10801 10808 10818 10834 10845 10858 10872 10890 10902 10911 10921 10931 10939 10948 10953 10957 10962 10969 10972 10975 10981 10987 10990 10993 10995 10998 11002 11004 11004 11006 11008 11007 11007 11008 11010 11011 11012 11012
10724 10733 10747 10757 10765 10773 10784 10791 10800 10816 10828 10845 10859 10874 10885 10896 10910 10921 10924 10929 10933 10939 10948 10957 10965 10968 10973 10980 10983 10990 10990 10995 10998 11001 11000 11002 11004 11005 11007 11006 11006 11008 11009 11010
10707 10718 10731 10740 10749 10765 10778 10779 10789 10803 10811 10829 10841 10857 10868 10881 10892 10901 10909 10909 10915 10925 10938 10945 10954 10958 10967 10972 10976 10979 10983 10988 10995 10995 10990 10993 10997 11000 11001 11004 11006 11007 11006 11007
10694 10708 10718 10727 10741 10755 10764 10765 10774 10783 10790 10812 10825 10841 10858 10871 10878 10886 10892 10894 10901 10911 10922 10932 10943 10948 10957 10963 10968 10970 10975 10982 10987 10990 10985 10989 10994 10995 10996 10999 10999 10999 11002 11004
10685 10694 10702 10712 10728 10739 10746 10753 10755 10763 10771 10795 10808 10826 10847 10857 10862 10872 10878 10880 10886 10894 10905 10917 10927 10934 10943 10948 10955 10959 10965 10973 10976 10980 10983 10985 10988 10991 10993 10992 10993 10995 10995 10999
10667 10674 10687 10700 10720 10723 10727 10736 10737 10747 10765 10777 10791 10809 10827 10839 10848 10856 10859 10864 10873 10881 10890 10901 10912 10921 10929 10933 10940 10947 10953 10961 10964 10969 10971 10973 10978 10981 10983 10986 10989 10989 10990 10991
10653 10657 10669 10686 10701 10702 10706 10720 10722 10733 10752 10767 10779 10792 10807 10821 10828 10836 10840 10849 10855 10864 10871 10882 10893 10900 10909 10916 10924 10931 10938 10946 10950 10956 10959 10960 10964 10969 10971 10973 10977 10980 10980 10982
10641 10649 10662 10672 10682 10685 10694 10704 10709 10718 10734 10750 10762 10774 10787 10797 10805 10811 10819 10827 10835 10839 10850 10859 10866 10876 10887 10896 10902 10913 10921 10929 10935 10941 10947 10950 10953 10956 10960 10963 10965 10967 10970 10973
10626 10638 10648 10659 10667 10671 10674 10677 10693 10705 10718 10734 10745 10753 10761 10771 10781 10787 10794 10802 10808 10817 10831 10836 10844 10853 10867 10876 10884 10895 10902 10909 10917 10922 10929 10932 10937 10942 10946 10949 10952 10955 10960 10964
10606 10616 10625 10635 10642 10653 10662 10662 10684 10695 10708 10716 10730 10737 10743 10749 10760 10766 10770 10772 10779 10790 10807 10815 10822 10833 10844 10856 10864 10874 10883 10888 10895 10902 10907 10910 10916 10922 10929 10934 10939 10944 10947 10952
10589 10596 10608 10617 10627 10639 10649 10645 10664 10681 10683 10695 10706 10716 10722 10729 10740 10744 10747 10749 10758 10766 10780 10791 10801 10809 10819 10829 10840 10850 10859 10866 10874 10878 10882 10888 10896 10902 10907 10913 10919 10926 10930 10935
10572 10578 10587 10596 10606 10621 10627 10628 10637 10654 10656 10671 10682 10689 10697 10705 10714 10720 10725 10732 10737 10742 10753 10766 10775 10785 10795 10805 10814 10826 10833 10839 10846 10853 10860 10866 10872 10877 10885 10893 10899 10904 10910 10916
10555 10560 10567 10575 10586 10599 10606 10611 10617 10627 10636 10644 10657 10667 10673 10680 10689 10699 10705 10713 10713 10719 10727 10740 10752 10760 10769 10779 10788 10797 10802 10813 10821 10829 10837 10844 10848 10854 10861 10868 10875 10881 10886 10892
10541 10543 10549 10556 10563 10572 10582 10588 10596 10604 10613 10623 10630 10641 10652 10662 10669 10678 10687 10689 10693 10699 10705 10714 10723 10731 10744 10753 10759 10767 10776 10785 10795 10802 10811 10818 10824 10831 10836 10841 10848 10855 10863 10867
10525 10528 10531 10536 10542 10548 10555 10560 10567 10574 10580 10589 10600 10612 10625 10636 10647 10655 10658 10661 10669 10676 10681 10685 10697 10705 10714 10723 10732 10739 10749 10757 10767 10774 10781 10789 10795 10802 10810 10816 10821 10827 10833 10840